Terminal Aerodrome Forecast
Issued by NWS Melbourne, FL

Home | Current Version | Previous Version | Text Only | Print | Product List | Glossary On
Versions: 1 2 3 4 5 6 7 8 9 10 11 12
000
FTUS42 KMLB 292300
TAFMLB
TAF
KMLB 292336Z 3000/3024 VRB03KT P6SM SCT250
     FM301400 29009KT P6SM SCT040 BKN250
     FM301900 30013G19KT P6SM BKN040 BKN250
     FM302300 34011KT P6SM SCT040=

USA.gov is the U.S. government's official web portal to all federal, state and local government web resources and services.